Regional Weather Roundup
Issued by NWS New Orleans/Baton Rouge, LA

Home | Current Version | Previous Version | Text Only | Print | Product List | Glossary On
Versions: 1 2 3 4 5 6 7 8 9 10 11 12 13 14 15 16 17 18 19 20 21 22 23 24 25 26 27 28 29 30 31 32 33 34 35 36 37 38 39 40 41 42 43 44 45 46 47 48 49 50
000
ASUS44 KLIX 230913
RWRLIX
NEW ORLEANS REGIONAL WEATHER ROUNDUP
NATIONAL WEATHER SERVICE NEW ORLEANS LA
400 AM CDT THU MAR 23 2017

NOTE: "FAIR" INDICATES FEW OR NO CLOUDS BELOW 12,000 FEET WITH NO
      SIGNIFICANT WEATHER AND/OR OBSTRUCTIONS TO VISIBILITY.
      SKY/WX - SKY CONDITION AND SIGNIFICANT WEATHER.
      TMP - AIR TEMPERATURE.     DP    - DEWPOINT TEMPERATURE.
      RH  - RELATIVE HUMIDITY.   PRES  - PRESSURE.
      HI  - HEAT INDEX.          WCI   - WIND CHILL INDEX.

*  THESE STATIONS ARE NOT NWS OR FAA STATIONS AND ARE NOT UNDER
   NWS QUALITY CONTROL.

LAZ038-040-048-061>063-065>067-069-231000-
SOUTHEAST LOUISIANA

CITY           SKY/WX    TMP DP  RH WIND       PRES   REMARKS
N.O. INTL ARPT PTCLDY    65  64  97 NW3       30.15R
N.O. LAKEFRONT CLEAR     70  66  87 CALM      30.15S
N.O. DOWNTOWN*   N/A     69  63  81 CALM      30.15S
RESERVE*         N/A     66  64  94 NW6       30.15S
SLIDELL        CLEAR     63  58  83 NE3       30.15S
BATON ROUGE    CLEAR     60  56  86 CALM      30.16S
BOOTHVILLE     FOG       66  66 100 CALM      30.14S VSB 1/4
BELLE CHASSE   CLEAR    N/A N/A N/A CALM      30.14S
BOGALUSA*        N/A     60  55  84 CALM      30.18F
GALLIANO*      SUNNY     65  63  93 NW6       30.14S
NEW ROADS*       N/A     59  56  92 CALM      30.17R
GONZALES*        N/A     64  64  97 NW6       30.15S
HAMMOND*       CLEAR     61  55  82 CALM      30.15F
HOUMA*         FOG       61  61  99 CALM      30.15S VSB 1/2
PORT FOURCHON* SUNNY     70  68  94 NW5       30.13S

$$

MSZ070-080>082-231000-
SOUTHERN MISSISSIPPI

CITY           SKY/WX    TMP DP  RH WIND       PRES   REMARKS
MCCOMB         CLEAR     63  53  70 VRB3      30.18S
GULFPORT       CLEAR     65  55  70 NE5       30.15S
BILOXI         CLEAR     62  56  81 NE8       30.15S
PASCAGOULA     CLEAR     57  54  89 CALM      30.16S

$$

COASTAL OBSERVATIONS
LAKE AND NEARSHORE STATIONS

STATION/POSITION TIME  TEMP    WIND        PRES    WAVE
                       AIR SEA DIR/SP/G            HT/PER
                 (UTC) (F)     (DEG/KT/KT) (MB)    (FT/S)
PASCAGOULA       0848   65      30/  6/  8 1020.7
WAVELAND YACHT   0842   67 72   50/  8/ 11 1020.8
GRAND ISLE       0848   71 71  330/ 10/ 11 1020.3
SOUTHWEST PASS   0848          300/  7/  8   N/A
NEW CANAL        0848   70 72  290/  2/  4 1020.0
SHELL BEACH      0842   72 74  360/  6/  6 1020.8

OFFSHORE STATIONS

STATION/POSITION TIME  TEMP    WIND        PRES    WAVE
                       AIR SEA DIR/SP/G            HT/PER
                 (UTC) (F)     (DEG/KT/KT) (MB)    (FT/S)
64 S DAUPHIN ISL 0850   71 73   30/  6/  8 1020.5    1/ 3

$$




USA.gov is the U.S. government's official web portal to all federal, state and local government web resources and services.